Home   Weather   Nanjing   Past weeks
Flag for China

Past Weather in Nanjing, Jiangsu, China — Yesterday and Last 2 Weeks

Now
68 °F

Scattered clouds.


Feels Like: 68 °F
Forecast: 73 / 54 °F
Wind: 3 mph from North

Location: Nanjing

Current Time: Oct 17, 2019 at 11:20:57 am

Latest Report: Oct 17, 2019 at 10:00 am


Visibility: N/A

Pressure: 30.30 "Hg

Humidity: 49%

Dew Point: 48 °F

Location of NanjingLocation

Past Weather in Nanjing — Graph

°F

Nanjing Temperature Yesterday

Maximum temperature yesterday: 70 °F (at 2:00 pm)
Minimum temperature yesterday: 48 °F (at 5:00 am)
Average temperature yesterday: 60 °F

High & Low Weather Summary for the Past Weeks

 TemperatureHumidityPressure
High90 °F (Oct 3, 2:00 pm)100% (Oct 3, 3:00 am)30.51 "Hg (Oct 3, 3:00 am)
Low48 °F (Oct 16, 5:00 am)33% (Oct 15, 3:00 pm)29.83 "Hg (Oct 2, 4:00 pm)
Average68 °F74%30.12 "Hg
* Reported Oct 2 10:00 am — Oct 17 10:00 am, Nanjing. Weather by CustomWeather, © 2019

Note: Actual official high and low records may vary slightly from our data, if they occured in-between our weather recording intervals... More about our weather records

Advertising

Nanjing Weather History for the Previous 24 Hours

Scroll right to see more
 ConditionsComfort  
Time TempWeatherWind HumidityBarometerVisibility
10:00 am
Thu, Oct 17
68 °FScattered clouds.3 mph49%30.30 "HgN/A
9:00 am64 °FPassing clouds.6 mph64%30.30 "HgN/A
8:00 am63 °FPassing clouds.3 mph73%30.30 "HgN/A
7:00 am59 °FSunny.1 mph88%30.27 "Hg10 mi
6:00 am55 °FClear.1 mph100%30.27 "Hg10 mi
5:00 am55 °FClear.No wind94%30.27 "Hg10 mi
4:00 am59 °FClear.1 mph88%30.24 "Hg10 mi
3:00 am59 °FClear.1 mph77%30.27 "Hg10 mi
2:00 am59 °FClear.1 mph82%30.27 "Hg10 mi
1:00 am61 °FLight rain. Clear.1 mph68%30.27 "HgN/A
12:00 am61 °FClear.1 mph63%30.30 "Hg10 mi
11:00 pm
Wed, Oct 16
61 °FClear.3 mph63%30.30 "Hg10 mi
10:00 pm63 °FPassing clouds.3 mph59%30.30 "HgN/A
9:00 pm61 °FPassing clouds.3 mph68%30.30 "HgN/A
8:00 pm63 °FClear.3 mph59%30.27 "Hg10 mi
7:00 pm64 °FClear.6 mph56%30.27 "Hg10 mi
6:00 pm66 °FPassing clouds.3 mph49%30.27 "HgN/A
5:00 pm66 °FSunny.8 mph49%30.24 "Hg10 mi
4:00 pm68 °FPassing clouds.8 mph43%30.24 "HgN/A
3:00 pm68 °FPassing clouds.6 mph46%30.24 "HgN/A
2:00 pm70 °FPassing clouds.3 mph40%30.24 "HgN/A
1:00 pm68 °FPassing clouds.3 mph43%30.27 "HgN/A
12:00 pm66 °FPassing clouds.6 mph46%30.30 "HgN/A
11:00 am66 °FPassing clouds.6 mph46%30.33 "HgN/A
Weather by CustomWeather, © 2019

See weather overview